Location: Newark
(49.8969°N, 3.3422°E)
Time: 06:13:07
(UTC+00:00)

Tiros 1 - Pass Details

Date: 24 January 2021
Orbit: 630 x 664 km, 48.4° (Epoch: 06 March)

Event Time Altitude Azimuth Distance (km) Brightness Sun altitude
Rises 19:35:05 0° 256° (WSW) 2,923 11.6 -29.8°
Reaches altitude 10° 19:37:25 10° 254° (WSW) 2,012 10.5 -30.2°
Enters shadow 19:40:04 34° 246° (WSW) 1,050 8.6 -30.6°
